Time,TemperatureF,DewpointF,PressureIn,WindDirection,WindDirectionDegrees,WindSpeedMPH,WindSpeedGustMPH,Humidity,HourlyPrecipIn,Conditions,Clouds,dailyrainin,SolarRadiationWatts/m^2,SoftwareType,DateUTC
2013-09-14 00:04:00,53.6,50.7,28.70,SE,144,0.0,0.0,90,0.00,,,0.00,0,WeatherTracker,2013-09-14 05:04:00,
2013-09-14 00:09:00,53.4,50.5,28.70,SE,144,0.0,0.0,90,0.00,,,0.00,0,WeatherTracker,2013-09-14 05:09:00,
2013-09-14 00:14:00,53.3,50.7,28.69,SE,144,0.0,0.0,91,0.00,,,0.00,0,WeatherTracker,2013-09-14 05:14:00,
2013-09-14 00:19:00,53.3,50.7,28.69,SE,144,0.0,0.0,91,0.00,,,0.00,0,WeatherTracker,2013-09-14 05:19:00,
2013-09-14 00:24:00,53.1,50.5,28.69,SE,144,0.0,0.0,91,0.00,,,0.00,0,WeatherTracker,2013-09-14 05:24:00,
2013-09-14 00:29:00,52.9,50.3,28.69,SE,144,0.0,0.0,91,0.00,,,0.00,0,WeatherTracker,2013-09-14 05:29:00,
2013-09-14 00:34:00,52.6,50.0,28.69,SE,144,0.0,0.0,91,0.00,,,0.00,0,WeatherTracker,2013-09-14 05:34:00,
2013-09-14 00:39:00,52.4,49.8,28.69,SE,144,0.0,0.0,91,0.00,,,0.00,0,WeatherTracker,2013-09-14 05:39:00,
2013-09-14 00:44:00,52.3,49.8,28.69,SE,144,0.0,0.0,91,0.00,,,0.00,0,WeatherTracker,2013-09-14 05:44:00,
2013-09-14 00:49:00,52.1,49.6,28.69,SE,144,0.0,0.0,91,0.00,,,0.00,0,WeatherTracker,2013-09-14 05:49:00,
2013-09-14 00:54:00,52.1,49.6,28.69,SE,144,0.0,0.0,91,0.00,,,0.00,0,WeatherTracker,2013-09-14 05:54:00,
2013-09-14 00:59:00,52.0,49.7,28.70,SE,144,0.0,0.0,92,0.00,,,0.00,0,WeatherTracker,2013-09-14 05:59:00,
2013-09-14 01:04:00,51.9,49.6,28.70,SE,144,0.0,0.0,92,0.00,,,0.00,0,WeatherTracker,2013-09-14 06:04:00,
2013-09-14 01:09:00,51.8,49.5,28.70,SE,144,0.0,0.0,92,0.00,,,0.00,0,WeatherTracker,2013-09-14 06:09:00,
2013-09-14 01:14:00,51.7,49.5,28.70,SE,144,0.0,0.0,92,0.00,,,0.00,0,WeatherTracker,2013-09-14 06:14:00,
2013-09-14 01:19:00,51.6,49.4,28.70,SE,144,0.0,0.0,92,0.00,,,0.00,0,WeatherTracker,2013-09-14 06:19:00,
2013-09-14 01:24:00,51.5,49.3,28.70,SE,144,0.0,0.0,92,0.00,,,0.00,0,WeatherTracker,2013-09-14 06:24:00,
2013-09-14 01:29:00,51.4,49.2,28.69,SE,144,0.0,0.0,92,0.00,,,0.00,0,WeatherTracker,2013-09-14 06:29:00,
2013-09-14 01:34:00,51.4,49.2,28.69,SE,144,0.0,0.0,92,0.00,,,0.00,0,WeatherTracker,2013-09-14 06:34:00,
2013-09-14 01:39:00,51.3,49.1,28.69,SE,144,0.0,0.0,92,0.00,,,0.00,0,WeatherTracker,2013-09-14 06:39:00,
2013-09-14 01:44:00,51.3,49.3,28.69,SE,144,0.0,0.0,93,0.00,,,0.00,0,WeatherTracker,2013-09-14 06:44:00,
2013-09-14 01:50:00,51.2,49.2,28.69,SE,144,0.0,0.0,93,0.00,,,0.00,0,WeatherTracker,2013-09-14 06:50:00,
2013-09-14 01:55:00,51.1,49.1,28.69,SE,144,0.0,0.0,93,0.00,,,0.00,0,WeatherTracker,2013-09-14 06:55:00,
2013-09-14 02:00:00,50.9,48.7,28.69,SE,144,0.0,0.0,92,0.00,,,0.00,0,WeatherTracker,2013-09-14 07:00:00,
2013-09-14 02:05:00,50.8,48.6,28.69,SE,144,0.0,0.0,92,0.00,,,0.00,0,WeatherTracker,2013-09-14 07:05:00,
2013-09-14 02:10:00,50.6,48.4,28.69,SE,144,0.0,0.0,92,0.00,,,0.00,0,WeatherTracker,2013-09-14 07:10:00,
2013-09-14 02:15:00,50.5,48.3,28.69,SE,144,0.0,0.0,92,0.00,,,0.00,0,WeatherTracker,2013-09-14 07:15:00,
2013-09-14 02:20:00,50.4,48.5,28.69,SE,144,0.0,0.0,93,0.00,,,0.00,0,WeatherTracker,2013-09-14 07:20:00,
2013-09-14 02:25:00,50.4,48.5,28.69,SE,144,0.0,0.0,93,0.00,,,0.00,0,WeatherTracker,2013-09-14 07:25:00,
2013-09-14 02:30:00,50.4,48.5,28.70,SE,144,0.0,0.0,93,0.00,,,0.00,0,WeatherTracker,2013-09-14 07:30:00,
2013-09-14 02:35:00,50.4,48.5,28.70,SE,144,0.0,0.0,93,0.00,,,0.00,0,WeatherTracker,2013-09-14 07:35:00,
2013-09-14 02:40:00,50.3,48.4,28.70,SE,144,0.0,0.0,93,0.00,,,0.00,0,WeatherTracker,2013-09-14 07:40:00,
2013-09-14 02:45:00,50.3,48.4,28.69,SE,144,0.0,0.0,93,0.00,,,0.00,0,WeatherTracker,2013-09-14 07:45:00,
2013-09-14 02:50:00,50.3,48.4,28.69,SE,144,0.0,0.0,93,0.00,,,0.00,0,WeatherTracker,2013-09-14 07:50:00,
2013-09-14 02:55:00,50.4,48.7,28.69,SE,144,0.0,0.0,94,0.00,,,0.00,0,WeatherTracker,2013-09-14 07:55:00,
2013-09-14 03:00:00,50.6,48.9,28.69,SE,144,0.0,0.0,94,0.00,,,0.00,0,WeatherTracker,2013-09-14 08:00:00,
2013-09-14 03:05:00,50.7,49.0,28.69,SE,144,0.0,0.0,94,0.00,,,0.00,0,WeatherTracker,2013-09-14 08:05:00,
2013-09-14 03:10:00,50.8,49.1,28.69,SE,144,0.0,0.0,94,0.00,,,0.00,0,WeatherTracker,2013-09-14 08:10:00,
2013-09-14 03:15:00,51.0,49.3,28.69,SE,144,0.0,0.0,94,0.00,,,0.00,0,WeatherTracker,2013-09-14 08:15:00,
2013-09-14 03:20:00,51.1,49.4,28.69,SE,144,0.0,0.0,94,0.00,,,0.00,0,WeatherTracker,2013-09-14 08:20:00,
2013-09-14 03:25:00,51.2,49.5,28.69,SE,144,0.0,0.0,94,0.00,,,0.00,0,WeatherTracker,2013-09-14 08:25:00,
2013-09-14 03:30:00,51.2,49.5,28.69,SE,144,0.0,0.0,94,0.00,,,0.00,0,WeatherTracker,2013-09-14 08:30:00,
2013-09-14 03:36:00,51.4,50.0,28.69,SE,144,0.0,0.0,95,0.00,,,0.00,0,WeatherTracker,2013-09-14 08:36:00,
2013-09-14 03:41:00,51.5,50.1,28.69,SE,144,0.0,0.0,95,0.00,,,0.00,0,WeatherTracker,2013-09-14 08:41:00,
2013-09-14 03:46:00,51.7,50.3,28.68,SE,144,0.0,0.0,95,0.00,,,0.00,0,WeatherTracker,2013-09-14 08:46:00,
2013-09-14 03:51:00,51.8,50.4,28.68,SE,144,0.0,0.0,95,0.00,,,0.00,0,WeatherTracker,2013-09-14 08:51:00,
2013-09-14 03:56:00,51.9,50.5,28.68,SE,144,0.0,0.0,95,0.00,,,0.00,0,WeatherTracker,2013-09-14 08:56:00,
2013-09-14 04:01:00,52.0,50.6,28.67,SE,144,0.0,0.0,95,0.00,,,0.00,0,WeatherTracker,2013-09-14 09:01:00,
2013-09-14 04:06:00,52.2,50.8,28.67,SE,144,0.0,0.0,95,0.00,,,0.00,0,WeatherTracker,2013-09-14 09:06:00,
2013-09-14 04:11:00,52.3,50.9,28.67,SE,144,0.0,0.0,95,0.00,,,0.00,0,WeatherTracker,2013-09-14 09:11:00,
2013-09-14 04:16:00,52.5,51.1,28.67,SE,144,0.0,0.0,95,0.00,,,0.00,0,WeatherTracker,2013-09-14 09:16:00,
2013-09-14 04:21:00,52.7,51.6,28.67,SE,144,0.0,0.0,96,0.00,,,0.00,0,WeatherTracker,2013-09-14 09:21:00,
2013-09-14 04:26:00,52.9,51.8,28.67,SE,144,0.0,0.0,96,0.00,,,0.00,0,WeatherTracker,2013-09-14 09:26:00,
2013-09-14 04:31:00,53.1,51.7,28.67,SE,144,0.0,0.0,95,0.00,,,0.00,0,WeatherTracker,2013-09-14 09:31:00,
2013-09-14 04:36:00,53.2,51.8,28.67,SE,144,0.0,0.0,95,0.00,,,0.00,0,WeatherTracker,2013-09-14 09:36:00,
2013-09-14 04:41:00,53.3,52.2,28.67,SE,144,0.0,0.0,96,0.00,,,0.00,0,WeatherTracker,2013-09-14 09:41:00,
2013-09-14 04:46:00,53.3,52.2,28.67,SE,144,0.0,0.0,96,0.00,,,0.00,0,WeatherTracker,2013-09-14 09:46:00,
2013-09-14 04:51:00,53.4,52.3,28.67,SE,144,0.0,0.0,96,0.00,,,0.00,0,WeatherTracker,2013-09-14 09:51:00,
2013-09-14 04:56:00,53.4,52.3,28.67,SE,144,0.0,0.0,96,0.00,,,0.00,0,WeatherTracker,2013-09-14 09:56:00,
2013-09-14 05:01:00,53.5,52.4,28.67,SE,144,0.0,0.0,96,0.00,,,0.00,0,WeatherTracker,2013-09-14 10:01:00,
2013-09-14 05:06:00,53.5,52.4,28.67,SE,144,0.0,0.0,96,0.00,,,0.00,0,WeatherTracker,2013-09-14 10:06:00,
2013-09-14 05:11:00,53.5,52.4,28.67,SE,144,0.0,0.0,96,0.00,,,0.00,0,WeatherTracker,2013-09-14 10:11:00,
2013-09-14 05:16:00,53.6,52.5,28.68,SE,144,0.0,0.0,96,0.00,,,0.00,0,WeatherTracker,2013-09-14 10:16:00,
2013-09-14 05:21:00,53.7,52.6,28.68,SE,144,0.0,0.0,96,0.00,,,0.00,0,WeatherTracker,2013-09-14 10:21:00,
2013-09-14 05:27:00,53.8,52.7,28.68,SE,144,0.0,0.0,96,0.00,,,0.00,0,WeatherTracker,2013-09-14 10:27:00,
2013-09-14 05:32:00,53.9,52.8,28.68,SE,144,0.0,0.0,96,0.00,,,0.00,0,WeatherTracker,2013-09-14 10:32:00,
2013-09-14 05:37:00,53.9,52.8,28.68,SE,144,0.0,0.0,96,0.00,,,0.00,0,WeatherTracker,2013-09-14 10:37:00,
2013-09-14 05:42:00,54.0,52.9,28.68,SE,144,0.0,0.0,96,0.00,,,0.00,0,WeatherTracker,2013-09-14 10:42:00,
2013-09-14 05:47:00,54.0,52.9,28.68,SE,144,0.0,0.0,96,0.00,,,0.00,0,WeatherTracker,2013-09-14 10:47:00,
2013-09-14 05:52:00,54.1,53.0,28.68,SE,144,0.0,0.0,96,0.00,,,0.00,0,WeatherTracker,2013-09-14 10:52:00,
2013-09-14 05:57:00,54.1,53.0,28.68,SE,144,0.0,0.0,96,0.00,,,0.00,0,WeatherTracker,2013-09-14 10:57:00,
2013-09-14 06:02:00,54.1,53.0,28.68,SE,144,0.0,0.0,96,0.00,,,0.00,0,WeatherTracker,2013-09-14 11:02:00,
2013-09-14 06:07:00,54.0,52.9,28.68,SE,144,0.0,0.0,96,0.00,,,0.00,0,WeatherTracker,2013-09-14 11:07:00,
2013-09-14 06:12:00,54.0,52.9,28.68,SE,144,0.0,0.0,96,0.00,,,0.00,0,WeatherTracker,2013-09-14 11:12:00,
2013-09-14 06:17:00,53.9,52.8,28.68,SE,144,0.0,0.0,96,0.00,,,0.00,0,WeatherTracker,2013-09-14 11:17:00,
2013-09-14 06:22:00,53.8,52.7,28.68,SE,144,0.0,0.0,96,0.00,,,0.00,0,WeatherTracker,2013-09-14 11:22:00,
2013-09-14 06:27:00,53.7,52.6,28.68,SE,144,0.0,0.0,96,0.00,,,0.00,0,WeatherTracker,2013-09-14 11:27:00,
2013-09-14 06:32:00,53.6,52.5,28.68,SE,144,0.0,0.0,96,0.00,,,0.00,0,WeatherTracker,2013-09-14 11:32:00,
2013-09-14 06:37:00,53.5,52.4,28.68,SE,144,0.0,0.0,96,0.00,,,0.00,0,WeatherTracker,2013-09-14 11:37:00,
2013-09-14 06:42:00,53.4,52.3,28.68,SE,144,0.0,0.0,96,0.00,,,0.00,0,WeatherTracker,2013-09-14 11:42:00,
2013-09-14 06:47:00,53.3,52.2,28.68,SE,144,0.0,0.0,96,0.00,,,0.00,0,WeatherTracker,2013-09-14 11:47:00,
2013-09-14 06:52:00,53.2,52.1,28.68,SE,144,0.0,0.0,96,0.00,,,0.00,0,WeatherTracker,2013-09-14 11:52:00,
2013-09-14 06:57:00,53.1,52.0,28.68,SE,144,0.0,0.0,96,0.00,,,0.00,0,WeatherTracker,2013-09-14 11:57:00,
2013-09-14 07:02:00,53.0,51.9,28.68,SE,144,0.0,0.0,96,0.00,,,0.00,0,WeatherTracker,2013-09-14 12:02:00,
2013-09-14 07:07:00,53.0,51.9,28.68,SE,144,0.0,0.0,96,0.00,,,0.00,0,WeatherTracker,2013-09-14 12:07:00,
2013-09-14 07:12:00,53.0,51.9,28.68,SE,144,0.0,0.0,96,0.00,,,0.00,5,WeatherTracker,2013-09-14 12:12:00,
2013-09-14 07:17:00,52.9,51.8,28.68,SE,144,0.0,0.0,96,0.00,,,0.00,7,WeatherTracker,2013-09-14 12:17:00,
2013-09-14 07:23:00,52.8,51.7,28.68,SE,144,0.0,0.0,96,0.00,,,0.00,12,WeatherTracker,2013-09-14 12:23:00,
2013-09-14 07:28:00,52.8,51.7,28.68,SE,144,0.0,0.0,96,0.00,,,0.00,14,WeatherTracker,2013-09-14 12:28:00,
2013-09-14 07:33:00,52.7,51.6,28.69,SE,144,0.0,0.0,96,0.00,,,0.00,14,WeatherTracker,2013-09-14 12:33:00,
2013-09-14 07:38:00,52.7,51.6,28.69,SE,144,0.0,0.0,96,0.00,,,0.00,16,WeatherTracker,2013-09-14 12:38:00,
2013-09-14 07:43:00,52.6,51.5,28.69,SE,144,0.0,0.0,96,0.00,,,0.00,18,WeatherTracker,2013-09-14 12:43:00,
2013-09-14 07:48:00,52.6,51.5,28.69,SE,144,0.0,0.0,96,0.00,,,0.00,21,WeatherTracker,2013-09-14 12:48:00,
2013-09-14 07:53:00,52.5,51.4,28.69,SE,144,0.0,0.0,96,0.00,,,0.00,26,WeatherTracker,2013-09-14 12:53:00,
2013-09-14 07:58:00,52.5,51.4,28.69,SE,144,0.0,0.0,96,0.00,,,0.00,30,WeatherTracker,2013-09-14 12:58:00,
2013-09-14 08:03:00,52.5,51.4,28.70,SE,144,0.0,0.0,96,0.01,,,0.01,33,WeatherTracker,2013-09-14 13:03:00,
2013-09-14 08:08:00,52.6,51.5,28.70,SE,144,0.0,0.0,96,0.01,,,0.01,37,WeatherTracker,2013-09-14 13:08:00,
2013-09-14 08:13:00,52.7,51.6,28.70,SE,144,0.0,0.0,96,0.01,,,0.01,42,WeatherTracker,2013-09-14 13:13:00,
2013-09-14 08:18:00,52.9,51.8,28.70,SE,144,0.0,0.0,96,0.01,,,0.01,46,WeatherTracker,2013-09-14 13:18:00,
2013-09-14 08:23:00,53.2,52.1,28.70,South,190,3.0,0.0,96,0.01,,,0.01,49,WeatherTracker,2013-09-14 13:23:00,
2013-09-14 08:28:00,53.5,52.4,28.70,SSW,203,5.0,0.0,96,0.01,,,0.01,54,WeatherTracker,2013-09-14 13:28:00,
2013-09-14 08:33:00,53.9,52.8,28.70,SSW,212,2.0,0.0,96,0.01,,,0.01,62,WeatherTracker,2013-09-14 13:33:00,
2013-09-14 08:38:00,54.3,53.5,28.70,SSW,207,0.0,0.0,97,0.01,,,0.01,70,WeatherTracker,2013-09-14 13:38:00,
2013-09-14 08:43:00,54.7,53.9,28.70,SSE,168,4.0,0.0,97,0.01,,,0.01,83,WeatherTracker,2013-09-14 13:43:00,
2013-09-14 08:48:00,55.1,54.3,28.69,SW,219,2.0,0.0,97,0.01,,,0.01,93,WeatherTracker,2013-09-14 13:48:00,
2013-09-14 08:53:00,55.7,54.9,28.69,SSW,213,3.0,0.0,97,0.01,,,0.01,98,WeatherTracker,2013-09-14 13:53:00,
2013-09-14 08:59:00,56.2,55.1,28.69,SSW,200,0.0,0.0,96,0.01,,,0.01,102,WeatherTracker,2013-09-14 13:59:00,
2013-09-14 09:04:00,56.9,55.5,28.69,SW,217,4.0,0.0,95,0.00,,,0.01,104,WeatherTracker,2013-09-14 14:04:00,
2013-09-14 09:09:00,57.6,55.9,28.69,SW,225,0.0,0.0,94,0.00,,,0.01,111,WeatherTracker,2013-09-14 14:09:00,
2013-09-14 09:14:00,58.5,56.2,28.69,SSW,196,5.0,0.0,92,0.00,,,0.01,114,WeatherTracker,2013-09-14 14:14:00,
2013-09-14 09:19:00,59.1,55.5,28.69,SW,215,5.0,0.0,88,0.00,,,0.01,128,WeatherTracker,2013-09-14 14:19:00,
2013-09-14 09:24:00,60.1,55.6,28.69,SSW,207,3.0,0.0,85,0.00,,,0.01,127,WeatherTracker,2013-09-14 14:24:00,
2013-09-14 09:29:00,60.9,55.0,28.68,SW,222,7.0,0.0,81,0.00,,,0.01,135,WeatherTracker,2013-09-14 14:29:00,
2013-09-14 09:34:00,61.6,55.0,28.68,SSW,213,2.0,0.0,79,0.00,,,0.01,148,WeatherTracker,2013-09-14 14:34:00,
2013-09-14 09:39:00,62.2,55.3,28.68,SSW,209,3.0,0.0,78,0.00,,,0.01,174,WeatherTracker,2013-09-14 14:39:00,
2013-09-14 09:44:00,62.8,54.8,28.68,SW,217,4.0,0.0,75,0.00,,,0.01,195,WeatherTracker,2013-09-14 14:44:00,
2013-09-14 09:49:00,63.4,54.6,28.68,SSW,210,3.0,0.0,73,0.00,,,0.01,230,WeatherTracker,2013-09-14 14:49:00,
2013-09-14 09:54:00,64.0,54.8,28.68,SSW,203,6.0,0.0,72,0.00,,,0.01,221,WeatherTracker,2013-09-14 14:54:00,
2013-09-14 09:59:00,64.4,54.8,28.68,SW,224,0.0,0.0,71,0.00,,,0.01,251,WeatherTracker,2013-09-14 14:59:00,
2013-09-14 10:04:00,64.8,55.2,28.68,SSW,202,0.0,0.0,71,0.00,,,0.01,230,WeatherTracker,2013-09-14 15:04:00,
2013-09-14 10:09:00,65.1,55.1,28.68,SSW,207,2.0,0.0,70,0.00,,,0.01,257,WeatherTracker,2013-09-14 15:09:00,
2013-09-14 10:14:00,65.4,55.0,28.69,SSW,194,4.0,0.0,69,0.00,,,0.01,367,WeatherTracker,2013-09-14 15:14:00,
2013-09-14 10:19:00,65.8,55.3,28.69,SSW,211,5.0,0.0,69,0.00,,,0.01,392,WeatherTracker,2013-09-14 15:19:00,
2013-09-14 10:24:00,66.3,55.4,28.69,SW,232,6.0,0.0,68,0.00,,,0.01,654,WeatherTracker,2013-09-14 15:24:00,
2013-09-14 10:29:00,66.9,56.0,28.68,SW,217,4.0,0.0,68,0.00,,,0.01,262,WeatherTracker,2013-09-14 15:29:00,
2013-09-14 10:34:00,67.4,55.2,28.68,SSW,210,5.0,0.0,65,0.00,,,0.01,313,WeatherTracker,2013-09-14 15:34:00,
2013-09-14 10:39:00,67.8,56.0,28.68,South,175,1.0,0.0,66,0.00,,,0.01,388,WeatherTracker,2013-09-14 15:39:00,
2013-09-14 10:45:00,68.3,55.6,28.67,SSW,207,3.0,0.0,64,0.00,,,0.01,629,WeatherTracker,2013-09-14 15:45:00,
2013-09-14 10:50:00,68.8,55.7,28.67,SW,223,0.0,0.0,63,0.00,,,0.01,213,WeatherTracker,2013-09-14 15:50:00,
2013-09-14 10:55:00,69.0,55.0,28.67,SSW,213,6.0,0.0,61,0.00,,,0.01,396,WeatherTracker,2013-09-14 15:55:00,
2013-09-14 11:00:00,69.2,55.6,28.67,SSW,202,3.0,0.0,62,0.00,,,0.01,306,WeatherTracker,2013-09-14 16:00:00,
2013-09-14 11:05:00,69.7,55.6,28.67,South,190,4.0,0.0,61,0.00,,,0.01,390,WeatherTracker,2013-09-14 16:05:00,
2013-09-14 11:10:00,70.3,55.3,28.67,SW,227,6.0,0.0,59,0.00,,,0.01,424,WeatherTracker,2013-09-14 16:10:00,
2013-09-14 11:15:00,71.1,55.1,28.66,SSE,153,12.0,0.0,57,0.00,,,0.01,366,WeatherTracker,2013-09-14 16:15:00,
2013-09-14 11:20:00,71.7,54.7,28.66,SW,215,5.0,0.0,55,0.00,,,0.01,376,WeatherTracker,2013-09-14 16:20:00,
2013-09-14 11:25:00,72.1,55.0,28.66,South,186,2.0,0.0,55,0.00,,,0.01,374,WeatherTracker,2013-09-14 16:25:00,
2013-09-14 11:30:00,72.5,54.9,28.66,SSW,198,2.0,0.0,54,0.00,,,0.01,515,WeatherTracker,2013-09-14 16:30:00,
2013-09-14 11:35:00,72.8,55.7,28.66,SW,214,2.0,0.0,55,0.00,,,0.01,657,WeatherTracker,2013-09-14 16:35:00,
2013-09-14 11:40:00,73.1,54.9,28.66,SSW,213,3.0,0.0,53,0.00,,,0.01,529,WeatherTracker,2013-09-14 16:40:00,
2013-09-14 11:45:00,73.0,55.9,28.65,SW,221,9.0,0.0,55,0.00,,,0.01,417,WeatherTracker,2013-09-14 16:45:00,
2013-09-14 11:50:00,73.1,56.5,28.65,SW,215,3.0,0.0,56,0.00,,,0.01,775,WeatherTracker,2013-09-14 16:50:00,
2013-09-14 11:55:00,73.5,55.8,28.65,SW,234,2.0,0.0,54,0.00,,,0.01,431,WeatherTracker,2013-09-14 16:55:00,
2013-09-14 12:00:00,73.8,57.1,28.64,SE,125,0.0,0.0,56,0.00,,,0.01,478,WeatherTracker,2013-09-14 17:00:00,
2013-09-14 12:05:00,74.3,56.0,28.64,SSW,203,7.0,0.0,53,0.00,,,0.01,817,WeatherTracker,2013-09-14 17:05:00,
2013-09-14 12:10:00,74.8,56.0,28.64,SW,235,7.0,0.0,52,0.00,,,0.01,605,WeatherTracker,2013-09-14 17:10:00,
2013-09-14 12:15:00,74.9,56.1,28.64,SSW,213,6.0,0.0,52,0.00,,,0.01,522,WeatherTracker,2013-09-14 17:15:00,
2013-09-14 12:21:00,74.7,56.4,28.64,SSW,195,10.0,0.0,53,0.00,,,0.01,608,WeatherTracker,2013-09-14 17:21:00,
2013-09-14 12:26:00,74.7,55.9,28.64,WSW,243,6.0,0.0,52,0.00,,,0.01,399,WeatherTracker,2013-09-14 17:26:00,
2013-09-14 12:31:00,74.5,55.7,28.63,SSW,206,3.0,0.0,52,0.00,,,0.01,404,WeatherTracker,2013-09-14 17:31:00,
2013-09-14 12:36:00,74.4,56.1,28.63,SW,224,4.0,0.0,53,0.00,,,0.01,413,WeatherTracker,2013-09-14 17:36:00,
2013-09-14 12:41:00,74.3,56.0,28.63,SSW,208,2.0,0.0,53,0.00,,,0.01,360,WeatherTracker,2013-09-14 17:41:00,
2013-09-14 12:46:00,74.2,56.0,28.63,SW,234,4.0,0.0,53,0.00,,,0.01,302,WeatherTracker,2013-09-14 17:46:00,
2013-09-14 12:51:00,74.1,55.9,28.63,SSW,196,4.0,0.0,53,0.00,,,0.01,260,WeatherTracker,2013-09-14 17:51:00,
2013-09-14 12:56:00,73.9,55.7,28.63,SSW,209,4.0,0.0,53,0.00,,,0.01,264,WeatherTracker,2013-09-14 17:56:00,
2013-09-14 13:01:00,73.6,55.9,28.63,SW,215,12.0,0.0,54,0.00,,,0.01,329,WeatherTracker,2013-09-14 18:01:00,
2013-09-14 13:06:00,73.5,56.8,28.63,SW,214,5.0,0.0,56,0.00,,,0.01,671,WeatherTracker,2013-09-14 18:06:00,
2013-09-14 13:11:00,74.0,57.8,28.63,SW,222,3.0,0.0,57,0.00,,,0.01,793,WeatherTracker,2013-09-14 18:11:00,
2013-09-14 13:16:00,74.7,56.4,28.63,SSW,194,4.0,0.0,53,0.00,,,0.01,512,WeatherTracker,2013-09-14 18:16:00,
2013-09-14 13:21:00,75.3,57.0,28.63,SW,232,5.0,0.0,53,0.00,,,0.01,675,WeatherTracker,2013-09-14 18:21:00,
2013-09-14 13:26:00,75.9,57.0,28.63,SW,221,6.0,0.0,52,0.00,,,0.01,548,WeatherTracker,2013-09-14 18:26:00,
2013-09-14 13:31:00,76.2,57.3,28.61,SSW,192,2.0,0.0,52,0.00,,,0.01,355,WeatherTracker,2013-09-14 18:31:00,
2013-09-14 13:36:00,76.3,56.8,28.61,SW,221,1.0,0.0,51,0.00,,,0.01,316,WeatherTracker,2013-09-14 18:36:00,
2013-09-14 13:41:00,76.2,57.3,28.61,SW,215,0.0,0.0,52,0.00,,,0.01,617,WeatherTracker,2013-09-14 18:41:00,
2013-09-14 13:46:00,76.4,57.5,28.61,SSW,211,4.0,0.0,52,0.00,,,0.01,645,WeatherTracker,2013-09-14 18:46:00,
2013-09-14 13:51:00,76.9,56.8,28.61,SSW,206,9.0,0.0,50,0.00,,,0.01,782,WeatherTracker,2013-09-14 18:51:00,
2013-09-14 13:56:00,77.5,56.2,28.61,South,187,6.0,0.0,48,0.00,,,0.01,545,WeatherTracker,2013-09-14 18:56:00,
2013-09-14 14:01:00,77.8,58.2,28.59,SW,219,0.0,0.0,51,0.00,,,0.01,462,WeatherTracker,2013-09-14 19:01:00,
2013-09-14 14:07:00,78.1,59.0,28.59,SSW,209,0.0,0.0,52,0.00,,,0.01,443,WeatherTracker,2013-09-14 19:07:00,
2013-09-14 14:12:00,78.4,57.1,28.59,SW,225,6.0,0.0,48,0.00,,,0.01,663,WeatherTracker,2013-09-14 19:12:00,
2013-09-14 14:17:00,78.7,56.2,28.59,SW,234,11.0,0.0,46,0.00,,,0.01,561,WeatherTracker,2013-09-14 19:17:00,
2013-09-14 14:22:00,78.5,57.2,28.59,SSW,209,5.0,0.0,48,0.00,,,0.01,346,WeatherTracker,2013-09-14 19:22:00,
2013-09-14 14:27:00,78.1,55.6,28.59,SSW,210,2.0,0.0,46,0.00,,,0.01,287,WeatherTracker,2013-09-14 19:27:00,
2013-09-14 14:32:00,77.6,55.8,28.59,SW,216,3.0,0.0,47,0.00,,,0.01,269,WeatherTracker,2013-09-14 19:32:00,
2013-09-14 14:37:00,77.2,56.0,28.59,SSW,209,4.0,0.0,48,0.00,,,0.01,306,WeatherTracker,2013-09-14 19:37:00,
2013-09-14 14:42:00,77.1,56.4,28.59,SW,227,5.0,0.0,49,0.00,,,0.01,420,WeatherTracker,2013-09-14 19:42:00,
2013-09-14 14:47:00,77.1,58.1,28.57,WSW,257,9.0,0.0,52,0.00,,,0.01,670,WeatherTracker,2013-09-14 19:47:00,
2013-09-14 14:52:00,77.5,57.9,28.57,SW,228,5.0,0.0,51,0.00,,,0.01,387,WeatherTracker,2013-09-14 19:52:00,
2013-09-14 14:57:00,77.6,57.5,28.57,SSW,200,5.0,0.0,50,0.00,,,0.01,336,WeatherTracker,2013-09-14 19:57:00,
2013-09-14 15:02:00,77.6,56.9,28.57,SW,214,11.0,0.0,49,0.00,,,0.01,459,WeatherTracker,2013-09-14 20:02:00,
2013-09-14 15:07:00,77.9,58.3,28.57,SW,214,7.0,0.0,51,0.00,,,0.01,703,WeatherTracker,2013-09-14 20:07:00,
2013-09-14 15:12:00,78.5,57.2,28.57,SW,216,1.0,0.0,48,0.00,,,0.01,352,WeatherTracker,2013-09-14 20:12:00,
2013-09-14 15:17:00,78.7,57.9,28.56,SW,219,1.0,0.0,49,0.00,,,0.01,227,WeatherTracker,2013-09-14 20:17:00,
2013-09-14 15:22:00,78.7,57.3,28.56,SW,227,1.0,0.0,48,0.00,,,0.01,230,WeatherTracker,2013-09-14 20:22:00,
2013-09-14 15:27:00,78.6,57.8,28.56,SW,215,0.0,0.0,49,0.00,,,0.01,257,WeatherTracker,2013-09-14 20:27:00,
2013-09-14 15:32:00,78.3,57.5,28.55,SSW,205,4.0,0.0,49,0.00,,,0.01,279,WeatherTracker,2013-09-14 20:32:00,
2013-09-14 15:37:00,78.1,57.9,28.55,South,171,0.0,0.0,50,0.00,,,0.01,267,WeatherTracker,2013-09-14 20:37:00,
2013-09-14 15:42:00,78.1,58.5,28.55,SSE,157,0.0,0.0,51,0.00,,,0.01,258,WeatherTracker,2013-09-14 20:42:00,
2013-09-14 15:47:00,78.1,57.4,28.54,SSW,213,3.0,0.0,49,0.00,,,0.01,237,WeatherTracker,2013-09-14 20:47:00,
2013-09-14 15:52:00,78.0,58.4,28.54,SSW,211,1.0,0.0,51,0.00,,,0.01,267,WeatherTracker,2013-09-14 20:52:00,
2013-09-14 15:58:00,78.0,59.5,28.54,SSW,194,4.0,0.0,53,0.00,,,0.01,315,WeatherTracker,2013-09-14 20:58:00,
2013-09-14 16:03:00,78.0,57.3,28.54,SW,223,3.0,0.0,49,0.00,,,0.01,397,WeatherTracker,2013-09-14 21:03:00,
2013-09-14 16:08:00,78.1,59.0,28.54,SW,222,5.0,0.0,52,0.00,,,0.01,373,WeatherTracker,2013-09-14 21:08:00,
2013-09-14 16:13:00,78.4,58.8,28.54,SSW,204,1.0,0.0,51,0.00,,,0.01,415,WeatherTracker,2013-09-14 21:13:00,
2013-09-14 16:18:00,78.7,58.5,28.53,SSW,203,2.0,0.0,50,0.00,,,0.01,462,WeatherTracker,2013-09-14 21:18:00,
2013-09-14 16:23:00,79.0,59.3,28.53,SW,217,0.0,0.0,51,0.00,,,0.01,251,WeatherTracker,2013-09-14 21:23:00,
2013-09-14 16:28:00,79.1,58.8,28.53,South,188,0.0,0.0,50,0.00,,,0.01,237,WeatherTracker,2013-09-14 21:28:00,
2013-09-14 16:33:00,79.1,58.8,28.52,SSW,206,1.0,0.0,50,0.00,,,0.01,244,WeatherTracker,2013-09-14 21:33:00,
2013-09-14 16:38:00,79.0,57.0,28.52,SSW,207,6.0,0.0,47,0.00,,,0.01,251,WeatherTracker,2013-09-14 21:38:00,
2013-09-14 16:43:00,78.7,57.3,28.52,SSW,204,0.0,0.0,48,0.00,,,0.01,267,WeatherTracker,2013-09-14 21:43:00,
2013-09-14 16:48:00,78.6,58.9,28.52,SSW,205,0.0,0.0,51,0.00,,,0.01,227,WeatherTracker,2013-09-14 21:48:00,
2013-09-14 16:53:00,78.4,57.6,28.52,South,187,0.0,0.0,49,0.00,,,0.01,137,WeatherTracker,2013-09-14 21:53:00,
2013-09-14 16:58:00,78.2,58.6,28.52,SSW,194,2.0,0.0,51,0.00,,,0.01,90,WeatherTracker,2013-09-14 21:58:00,
2013-09-14 17:03:00,77.8,58.2,28.52,SW,214,3.0,0.0,51,0.00,,,0.01,95,WeatherTracker,2013-09-14 22:03:00,
2013-09-14 17:08:00,77.5,58.5,28.52,SSW,209,4.0,0.0,52,0.00,,,0.01,102,WeatherTracker,2013-09-14 22:08:00,
2013-09-14 17:13:00,77.1,58.6,28.52,SSW,198,2.0,0.0,53,0.00,,,0.01,95,WeatherTracker,2013-09-14 22:13:00,
2013-09-14 17:18:00,76.8,58.4,28.52,SSW,203,0.0,0.0,53,0.00,,,0.01,86,WeatherTracker,2013-09-14 22:18:00,
2013-09-14 17:23:00,76.6,58.7,28.52,SSW,209,0.0,0.0,54,0.00,,,0.01,88,WeatherTracker,2013-09-14 22:23:00,
2013-09-14 17:28:00,76.4,59.5,28.52,SSW,209,0.0,0.0,56,0.00,,,0.01,98,WeatherTracker,2013-09-14 22:28:00,
2013-09-14 17:33:00,76.2,59.3,28.51,SSW,209,1.0,0.0,56,0.00,,,0.01,97,WeatherTracker,2013-09-14 22:33:00,
2013-09-14 17:38:00,76.1,59.7,28.51,SSW,209,0.0,0.0,57,0.00,,,0.01,120,WeatherTracker,2013-09-14 22:38:00,
2013-09-14 17:43:00,76.0,59.6,28.50,SSW,212,0.0,0.0,57,0.00,,,0.01,102,WeatherTracker,2013-09-14 22:43:00,
2013-09-14 17:48:00,76.0,59.6,28.50,SSW,208,0.0,0.0,57,0.00,,,0.01,84,WeatherTracker,2013-09-14 22:48:00,
2013-09-14 17:49:00,75.9,59.6,28.50,SSW,208,0.0,0.0,57,0.00,,,0.01,86,WeatherTracker,2013-09-14 22:49:00,
2013-09-14 17:54:00,75.9,60.0,28.50,SSW,210,0.0,0.0,58,0.00,,,0.01,107,WeatherTracker,2013-09-14 22:54:00,
2013-09-14 17:59:00,75.8,60.0,28.50,SSW,209,0.0,0.0,58,0.00,,,0.01,109,WeatherTracker,2013-09-14 22:59:00,
2013-09-14 18:04:00,75.8,60.0,28.50,SSW,209,0.0,0.0,58,0.00,,,0.01,86,WeatherTracker,2013-09-14 23:04:00,
2013-09-14 18:09:00,75.7,59.9,28.50,SSW,209,0.0,0.0,58,0.00,,,0.01,76,WeatherTracker,2013-09-14 23:09:00,
2013-09-14 18:14:00,75.7,60.3,28.50,SSW,209,0.0,0.0,59,0.00,,,0.01,63,WeatherTracker,2013-09-14 23:14:00,
2013-09-14 18:20:00,75.6,60.7,28.50,SSW,209,0.0,0.0,60,0.00,,,0.01,69,WeatherTracker,2013-09-14 23:20:00,
2013-09-14 18:25:00,75.6,60.7,28.50,SSW,209,0.0,0.0,60,0.00,,,0.01,72,WeatherTracker,2013-09-14 23:25:00,
2013-09-14 18:30:00,75.4,61.0,28.51,SSW,209,0.0,0.0,61,0.00,,,0.01,69,WeatherTracker,2013-09-14 23:30:00,
2013-09-14 18:35:00,75.3,61.8,28.51,SSW,209,0.0,0.0,63,0.00,,,0.01,74,WeatherTracker,2013-09-14 23:35:00,
2013-09-14 18:40:00,75.2,61.3,28.51,SSW,209,0.0,0.0,62,0.00,,,0.01,70,WeatherTracker,2013-09-14 23:40:00,
2013-09-14 18:45:00,75.1,62.1,28.50,SSW,209,0.0,0.0,64,0.00,,,0.01,56,WeatherTracker,2013-09-14 23:45:00,
2013-09-14 18:50:00,74.9,62.3,28.50,SSW,209,0.0,0.0,65,0.00,,,0.01,39,WeatherTracker,2013-09-14 23:50:00,
2013-09-14 18:55:00,74.7,61.2,28.50,SSW,209,0.0,0.0,63,0.00,,,0.01,33,WeatherTracker,2013-09-14 23:55:00,
2013-09-14 19:00:00,74.5,61.1,28.50,SSW,209,0.0,0.0,63,0.00,,,0.01,33,WeatherTracker,2013-09-15 00:00:00,
2013-09-14 19:05:00,74.2,60.8,28.50,SSW,209,0.0,0.0,63,0.00,,,0.01,33,WeatherTracker,2013-09-15 00:05:00,
2013-09-14 19:10:00,74.0,60.6,28.50,SSW,209,0.0,0.0,63,0.00,,,0.01,32,WeatherTracker,2013-09-15 00:10:00,
2013-09-14 19:15:00,73.8,60.8,28.50,SSW,209,0.0,0.0,64,0.00,,,0.01,26,WeatherTracker,2013-09-15 00:15:00,
2013-09-14 19:20:00,73.6,60.7,28.50,SSW,209,0.0,0.0,64,0.00,,,0.01,23,WeatherTracker,2013-09-15 00:20:00,
2013-09-14 19:25:00,73.4,60.9,28.50,SSW,209,0.0,0.0,65,0.00,,,0.01,18,WeatherTracker,2013-09-15 00:25:00,
2013-09-14 19:30:00,73.1,60.6,28.49,SSW,209,0.0,0.0,65,0.00,,,0.01,12,WeatherTracker,2013-09-15 00:30:00,
2013-09-14 19:35:00,72.8,60.8,28.49,SSW,209,0.0,0.0,66,0.00,,,0.01,11,WeatherTracker,2013-09-15 00:35:00,
2013-09-14 19:40:00,72.5,60.9,28.49,SSW,209,0.0,0.0,67,0.00,,,0.01,5,WeatherTracker,2013-09-15 00:40:00,
2013-09-14 19:45:00,72.2,61.0,28.48,SSW,209,0.0,0.0,68,0.00,,,0.01,0,WeatherTracker,2013-09-15 00:45:00,
2013-09-14 19:50:00,71.9,60.8,28.48,SSW,209,0.0,0.0,68,0.00,,,0.01,0,WeatherTracker,2013-09-15 00:50:00,
2013-09-14 19:55:00,71.5,60.4,28.48,SSW,209,0.0,0.0,68,0.00,,,0.01,0,WeatherTracker,2013-09-15 00:55:00,
2013-09-14 20:00:00,71.2,60.5,28.49,SSW,209,0.0,0.0,69,0.00,,,0.01,0,WeatherTracker,2013-09-15 01:00:00,
2013-09-14 20:05:00,70.9,60.2,28.49,SSW,209,0.0,0.0,69,0.00,,,0.01,0,WeatherTracker,2013-09-15 01:05:00,
2013-09-14 20:10:00,70.6,60.3,28.49,SSW,209,0.0,0.0,70,0.00,,,0.01,0,WeatherTracker,2013-09-15 01:10:00,
2013-09-14 20:15:00,70.3,60.0,28.48,SSW,209,0.0,0.0,70,0.00,,,0.01,0,WeatherTracker,2013-09-15 01:15:00,
2013-09-14 20:20:00,70.1,59.8,28.48,SSW,209,0.0,0.0,70,0.00,,,0.01,0,WeatherTracker,2013-09-15 01:20:00,
2013-09-14 20:25:00,69.8,60.0,28.48,SSW,209,0.0,0.0,71,0.00,,,0.01,0,WeatherTracker,2013-09-15 01:25:00,
2013-09-14 20:30:00,69.6,59.8,28.49,SSW,209,0.0,0.0,71,0.00,,,0.01,0,WeatherTracker,2013-09-15 01:30:00,
2013-09-14 20:35:00,69.4,60.0,28.49,SSW,209,0.0,0.0,72,0.00,,,0.01,0,WeatherTracker,2013-09-15 01:35:00,
2013-09-14 20:40:00,69.2,59.8,28.49,SSW,209,0.0,0.0,72,0.00,,,0.01,0,WeatherTracker,2013-09-15 01:40:00,
2013-09-14 20:45:00,69.0,60.0,28.49,SSW,209,0.0,0.0,73,0.00,,,0.01,0,WeatherTracker,2013-09-15 01:45:00,
2013-09-14 20:50:00,68.9,59.9,28.49,SSW,209,0.0,0.0,73,0.00,,,0.01,0,WeatherTracker,2013-09-15 01:50:00,
2013-09-14 20:55:00,68.7,60.1,28.49,SSW,209,0.0,0.0,74,0.00,,,0.01,0,WeatherTracker,2013-09-15 01:55:00,
2013-09-14 21:00:00,68.6,60.0,28.49,SSW,209,0.0,0.0,74,0.00,,,0.01,0,WeatherTracker,2013-09-15 02:00:00,
2013-09-14 21:05:00,68.5,59.9,28.49,SSW,210,0.0,0.0,74,0.00,,,0.01,0,WeatherTracker,2013-09-15 02:05:00,
2013-09-14 21:10:00,68.4,60.2,28.49,SSW,210,0.0,0.0,75,0.00,,,0.01,0,WeatherTracker,2013-09-15 02:10:00,
2013-09-14 21:15:00,68.3,60.1,28.48,SSW,210,0.0,0.0,75,0.00,,,0.01,0,WeatherTracker,2013-09-15 02:15:00,
2013-09-14 21:20:00,68.3,60.1,28.48,SSE,159,0.0,0.0,75,0.00,,,0.01,0,WeatherTracker,2013-09-15 02:20:00,
2013-09-14 21:25:00,68.3,60.1,28.48,SSE,159,0.0,0.0,75,0.00,,,0.01,0,WeatherTracker,2013-09-15 02:25:00,
2013-09-14 21:30:00,68.3,60.1,28.48,SSE,159,0.0,0.0,75,0.00,,,0.01,0,WeatherTracker,2013-09-15 02:30:00,
2013-09-14 21:35:00,68.3,60.1,28.48,SSE,159,0.0,0.0,75,0.00,,,0.01,0,WeatherTracker,2013-09-15 02:35:00,
2013-09-14 21:40:00,68.3,60.1,28.48,SSE,159,0.0,0.0,75,0.00,,,0.01,0,WeatherTracker,2013-09-15 02:40:00,
2013-09-14 21:46:00,68.4,59.8,28.48,SW,221,0.0,0.0,74,0.00,,,0.01,0,WeatherTracker,2013-09-15 02:46:00,
2013-09-14 21:51:00,68.4,59.8,28.48,SW,221,0.0,0.0,74,0.00,,,0.01,0,WeatherTracker,2013-09-15 02:51:00,
2013-09-14 21:56:00,68.5,59.9,28.48,SW,221,0.0,0.0,74,0.00,,,0.01,0,WeatherTracker,2013-09-15 02:56:00,
2013-09-14 22:01:00,68.5,59.9,28.48,SW,221,0.0,0.0,74,0.00,,,0.01,0,WeatherTracker,2013-09-15 03:01:00,
2013-09-14 22:06:00,68.5,59.9,28.48,SW,221,0.0,0.0,74,0.00,,,0.01,0,WeatherTracker,2013-09-15 03:06:00,
2013-09-14 22:11:00,68.5,59.5,28.48,SW,216,0.0,0.0,73,0.00,,,0.01,0,WeatherTracker,2013-09-15 03:11:00,
2013-09-14 22:16:00,68.5,59.5,28.48,SW,216,2.0,0.0,73,0.00,,,0.01,0,WeatherTracker,2013-09-15 03:16:00,
2013-09-14 22:21:00,68.5,59.5,28.48,SW,216,0.0,0.0,73,0.00,,,0.01,0,WeatherTracker,2013-09-15 03:21:00,
2013-09-14 22:26:00,68.5,59.9,28.48,SW,216,0.0,0.0,74,0.00,,,0.01,0,WeatherTracker,2013-09-15 03:26:00,
2013-09-14 22:31:00,68.5,59.5,28.48,SW,216,0.0,0.0,73,0.00,,,0.01,0,WeatherTracker,2013-09-15 03:31:00,
2013-09-14 22:36:00,68.5,59.9,28.48,SW,216,0.0,0.0,74,0.00,,,0.01,0,WeatherTracker,2013-09-15 03:36:00,
2013-09-14 22:41:00,68.5,59.9,28.48,SW,216,0.0,0.0,74,0.00,,,0.01,0,WeatherTracker,2013-09-15 03:41:00,
2013-09-14 22:46:00,68.5,59.9,28.48,SW,215,0.0,0.0,74,0.00,,,0.01,0,WeatherTracker,2013-09-15 03:46:00,
2013-09-14 22:51:00,68.4,59.8,28.48,SW,217,0.0,0.0,74,0.00,,,0.01,0,WeatherTracker,2013-09-15 03:51:00,
2013-09-14 22:56:00,68.4,59.8,28.48,SW,218,0.0,0.0,74,0.00,,,0.01,0,WeatherTracker,2013-09-15 03:56:00,
2013-09-14 23:01:00,68.4,59.8,28.49,SSW,202,1.0,0.0,74,0.00,,,0.01,0,WeatherTracker,2013-09-15 04:01:00,
2013-09-14 23:02:00,68.4,59.8,28.49,SSW,202,0.0,0.0,74,0.00,,,0.01,0,WeatherTracker,2013-09-15 04:02:00,
2013-09-14 23:03:00,68.4,59.8,28.49,SSW,202,0.0,0.0,74,0.00,,,0.01,0,WeatherTracker,2013-09-15 04:03:00,
2013-09-14 23:08:00,68.4,59.8,28.49,SSW,203,0.0,0.0,74,0.00,,,0.01,0,WeatherTracker,2013-09-15 04:08:00,
2013-09-14 23:13:00,68.4,59.8,28.49,SSW,207,0.0,0.0,74,0.00,,,0.01,0,WeatherTracker,2013-09-15 04:13:00,
2013-09-14 23:18:00,68.3,59.7,28.48,SSW,209,2.0,0.0,74,0.00,,,0.01,0,WeatherTracker,2013-09-15 04:18:00,
2013-09-14 23:23:00,68.4,59.8,28.48,SSW,209,3.0,0.0,74,0.00,,,0.01,0,WeatherTracker,2013-09-15 04:23:00,
2013-09-14 23:28:00,68.4,60.2,28.48,SSW,202,0.0,0.0,75,0.00,,,0.01,0,WeatherTracker,2013-09-15 04:28:00,
2013-09-14 23:33:00,68.5,59.9,28.48,SW,223,0.0,0.0,74,0.00,,,0.01,0,WeatherTracker,2013-09-15 04:33:00,
2013-09-14 23:38:00,68.6,60.0,28.48,SW,225,0.0,0.0,74,0.00,,,0.01,0,WeatherTracker,2013-09-15 04:38:00,
2013-09-14 23:43:00,68.6,60.0,28.48,SSW,192,3.0,0.0,74,0.00,,,0.01,0,WeatherTracker,2013-09-15 04:43:00,
2013-09-14 23:48:00,68.8,60.2,28.48,SW,218,0.0,0.0,74,0.00,,,0.01,0,WeatherTracker,2013-09-15 04:48:00,
2013-09-14 23:53:00,68.9,60.3,28.48,SSW,211,3.0,0.0,74,0.00,,,0.01,0,WeatherTracker,2013-09-15 04:53:00,
2013-09-14 23:58:00,69.0,60.4,28.48,SW,222,2.0,0.0,74,0.00,,,0.01,0,WeatherTracker,2013-09-15 04:58:00,